Time,TemperatureF,DewpointF,PressureIn,WindDirection,WindDirectionDegrees,WindSpeedMPH,WindSpeedGustMPH,Humidity,HourlyPrecipIn,Conditions,Clouds,dailyrainin,SoftwareType,DateUTC
2013-03-04 01:00:00,34.0,21.0,29.80,NNE,12,4.0,10.0,58,-99.99,,,-99.99,,2013-03-04 06:00:00,
2013-03-04 01:22:00,34.0,21.0,29.80,NNE,12,4.0,10.0,58,-99.99,,,-99.99,,2013-03-04 06:22:00,
2013-03-04 01:32:00,34.0,21.0,29.80,NNE,12,4.0,10.0,58,-99.99,,,-99.99,,2013-03-04 06:32:00,
2013-03-04 01:42:00,34.0,21.0,29.80,NNE,12,4.0,10.0,58,-99.99,,,-99.99,,2013-03-04 06:42:00,
2013-03-04 01:52:00,34.0,21.0,29.80,NNE,12,4.0,10.0,58,-99.99,,,-99.99,,2013-03-04 06:52:00,
2013-03-04 02:00:00,34.0,19.0,29.80,ENE,73,5.0,10.0,55,-99.99,,,-99.99,,2013-03-04 07:00:00,
2013-03-04 02:32:00,34.0,19.0,29.80,ENE,73,5.0,10.0,55,-99.99,,,-99.99,,2013-03-04 07:32:00,
2013-03-04 02:42:00,34.0,19.0,29.80,ENE,73,5.0,10.0,55,-99.99,,,-99.99,,2013-03-04 07:42:00,
2013-03-04 02:52:00,34.0,19.0,29.80,ENE,73,5.0,10.0,55,-99.99,,,-99.99,,2013-03-04 07:52:00,
2013-03-04 03:00:00,33.0,16.0,29.80,West,276,5.0,19.0,50,-99.99,,,-99.99,,2013-03-04 08:00:00,
2013-03-04 03:22:00,33.0,16.0,29.80,West,276,5.0,19.0,50,-99.99,,,-99.99,,2013-03-04 08:22:00,
2013-03-04 03:32:00,33.0,16.0,29.80,West,276,5.0,19.0,50,-99.99,,,-99.99,,2013-03-04 08:32:00,
2013-03-04 03:42:00,33.0,16.0,29.80,West,276,5.0,19.0,50,-99.99,,,-99.99,,2013-03-04 08:42:00,
2013-03-04 03:52:00,33.0,16.0,29.80,West,276,5.0,19.0,50,-99.99,,,-99.99,,2013-03-04 08:52:00,
2013-03-04 04:00:00,32.0,17.0,29.80,WNW,303,5.0,10.0,54,-99.99,,,-99.99,,2013-03-04 09:00:00,
2013-03-04 04:22:00,32.0,17.0,29.80,WNW,303,5.0,10.0,54,-99.99,,,-99.99,,2013-03-04 09:22:00,
2013-03-04 04:32:00,32.0,17.0,29.80,WNW,303,5.0,10.0,54,-99.99,,,-99.99,,2013-03-04 09:32:00,
2013-03-04 04:42:00,32.0,17.0,29.80,WNW,303,5.0,10.0,54,-99.99,,,-99.99,,2013-03-04 09:42:00,
2013-03-04 04:52:00,32.0,17.0,29.80,WNW,303,5.0,10.0,54,-99.99,,,-99.99,,2013-03-04 09:52:00,
2013-03-04 05:00:00,32.0,18.0,29.83,NNE,14,3.0,10.0,56,-99.99,,,-99.99,,2013-03-04 10:00:00,
2013-03-04 05:22:00,32.0,18.0,29.83,NNE,14,3.0,10.0,56,-99.99,,,-99.99,,2013-03-04 10:22:00,
2013-03-04 05:32:00,32.0,18.0,29.83,NNE,14,3.0,10.0,56,-99.99,,,-99.99,,2013-03-04 10:32:00,
2013-03-04 05:42:00,32.0,18.0,29.83,NNE,14,3.0,10.0,56,-99.99,,,-99.99,,2013-03-04 10:42:00,
2013-03-04 05:52:00,32.0,18.0,29.83,NNE,14,3.0,10.0,56,-99.99,,,-99.99,,2013-03-04 10:52:00,
2013-03-04 06:00:00,31.0,16.0,29.83,NNW,335,7.0,19.0,54,-99.99,,,-99.99,,2013-03-04 11:00:00,
2013-03-04 06:32:00,31.0,16.0,29.83,NNW,335,7.0,19.0,54,-99.99,,,-99.99,,2013-03-04 11:32:00,
2013-03-04 06:42:00,31.0,16.0,29.83,NNW,335,7.0,19.0,54,-99.99,,,-99.99,,2013-03-04 11:42:00,
2013-03-04 06:52:00,31.0,16.0,29.83,NNW,335,7.0,19.0,54,-99.99,,,-99.99,,2013-03-04 11:52:00,
2013-03-04 07:00:00,30.0,15.0,29.85,WNW,300,4.0,17.0,53,-99.99,,,-99.99,,2013-03-04 12:00:00,
2013-03-04 07:22:00,30.0,15.0,29.85,WNW,300,4.0,17.0,53,-99.99,,,-99.99,,2013-03-04 12:22:00,
2013-03-04 07:32:00,30.0,15.0,29.85,WNW,300,4.0,17.0,53,-99.99,,,-99.99,,2013-03-04 12:32:00,
2013-03-04 07:43:00,30.0,15.0,29.85,WNW,300,4.0,17.0,53,-99.99,,,-99.99,,2013-03-04 12:43:00,
2013-03-04 07:53:00,30.0,15.0,29.85,WNW,300,4.0,17.0,53,-99.99,,,-99.99,,2013-03-04 12:53:00,
2013-03-04 08:00:00,31.0,15.0,29.88,NNW,337,7.0,23.0,52,-99.99,,,-99.99,,2013-03-04 13:00:00,
2013-03-04 08:22:00,31.0,15.0,29.88,NNW,337,7.0,23.0,52,-99.99,,,-99.99,,2013-03-04 13:22:00,
2013-03-04 08:32:00,31.0,15.0,29.88,NNW,337,7.0,23.0,52,-99.99,,,-99.99,,2013-03-04 13:32:00,
2013-03-04 08:42:00,31.0,15.0,29.88,NNW,337,7.0,23.0,52,-99.99,,,-99.99,,2013-03-04 13:42:00,
2013-03-04 08:52:00,31.0,15.0,29.88,NNW,337,7.0,23.0,52,-99.99,,,-99.99,,2013-03-04 13:52:00,
2013-03-04 09:00:00,33.0,16.0,29.85,ENE,61,7.0,20.0,50,-99.99,,,-99.99,,2013-03-04 14:00:00,
2013-03-04 09:22:00,33.0,16.0,29.85,ENE,61,7.0,20.0,50,-99.99,,,-99.99,,2013-03-04 14:22:00,
2013-03-04 09:32:00,33.0,16.0,29.85,ENE,61,7.0,20.0,50,-99.99,,,-99.99,,2013-03-04 14:32:00,
2013-03-04 09:42:00,33.0,16.0,29.85,ENE,61,7.0,20.0,50,-99.99,,,-99.99,,2013-03-04 14:42:00,
2013-03-04 09:52:00,33.0,16.0,29.85,ENE,61,7.0,20.0,50,-99.99,,,-99.99,,2013-03-04 14:52:00,
2013-03-04 10:00:00,35.0,17.0,29.85,NNW,348,8.0,18.0,47,-99.99,,,-99.99,,2013-03-04 15:00:00,
2013-03-04 10:22:00,35.0,17.0,29.85,NNW,348,8.0,18.0,47,-99.99,,,-99.99,,2013-03-04 15:22:00,
2013-03-04 10:32:00,35.0,17.0,29.85,NNW,348,8.0,18.0,47,-99.99,,,-99.99,,2013-03-04 15:32:00,
2013-03-04 10:42:00,35.0,17.0,29.85,NNW,348,8.0,18.0,47,-99.99,,,-99.99,,2013-03-04 15:42:00,
2013-03-04 10:52:00,35.0,17.0,29.85,NNW,348,8.0,18.0,47,-99.99,,,-99.99,,2013-03-04 15:52:00,
2013-03-04 11:00:00,36.0,17.0,29.85,NW,325,8.0,26.0,46,-99.99,,,-99.99,,2013-03-04 16:00:00,
2013-03-04 11:32:00,36.0,17.0,29.85,NW,325,8.0,26.0,46,-99.99,,,-99.99,,2013-03-04 16:32:00,
2013-03-04 11:42:00,36.0,17.0,29.85,NW,325,8.0,26.0,46,-99.99,,,-99.99,,2013-03-04 16:42:00,
2013-03-04 11:52:00,36.0,17.0,29.85,NW,325,8.0,26.0,46,-99.99,,,-99.99,,2013-03-04 16:52:00,
2013-03-04 12:00:00,38.0,17.0,29.85,NNE,32,3.0,25.0,43,-99.99,,,-99.99,,2013-03-04 17:00:00,
2013-03-04 12:22:00,38.0,17.0,29.85,NNE,32,3.0,25.0,43,-99.99,,,-99.99,,2013-03-04 17:22:00,
2013-03-04 12:32:00,38.0,17.0,29.85,NNE,32,3.0,25.0,43,-99.99,,,-99.99,,2013-03-04 17:32:00,
2013-03-04 12:42:00,38.0,17.0,29.85,NNE,32,3.0,25.0,43,-99.99,,,-99.99,,2013-03-04 17:42:00,
2013-03-04 12:52:00,38.0,17.0,29.85,NNE,32,3.0,25.0,43,-99.99,,,-99.99,,2013-03-04 17:52:00,
2013-03-04 13:00:00,38.0,18.0,29.83,WSW,255,4.0,26.0,43,-99.99,,,-99.99,,2013-03-04 18:00:00,
2013-03-04 13:22:00,38.0,18.0,29.83,WSW,255,4.0,26.0,43,-99.99,,,-99.99,,2013-03-04 18:22:00,
2013-03-04 13:32:00,38.0,18.0,29.83,WSW,255,4.0,26.0,43,-99.99,,,-99.99,,2013-03-04 18:32:00,
2013-03-04 13:42:00,38.0,18.0,29.83,WSW,255,4.0,26.0,43,-99.99,,,-99.99,,2013-03-04 18:42:00,
2013-03-04 13:52:00,38.0,18.0,29.83,WSW,255,4.0,26.0,43,-99.99,,,-99.99,,2013-03-04 18:52:00,
2013-03-04 14:00:00,39.0,19.0,29.83,SSE,161,8.0,26.0,43,-99.99,,,-99.99,,2013-03-04 19:00:00,
2013-03-04 14:22:00,39.0,19.0,29.83,SSE,161,8.0,26.0,43,-99.99,,,-99.99,,2013-03-04 19:22:00,
2013-03-04 14:32:00,39.0,19.0,29.83,SSE,161,8.0,26.0,43,-99.99,,,-99.99,,2013-03-04 19:32:00,
2013-03-04 14:42:00,39.0,19.0,29.83,SSE,161,8.0,26.0,43,-99.99,,,-99.99,,2013-03-04 19:42:00,
2013-03-04 14:52:00,39.0,19.0,29.83,SSE,161,8.0,26.0,43,-99.99,,,-99.99,,2013-03-04 19:52:00,
2013-03-04 15:00:00,40.0,18.0,29.83,East,90,7.0,28.0,41,-99.99,,,-99.99,,2013-03-04 20:00:00,
2013-03-04 15:22:00,40.0,18.0,29.83,East,90,7.0,28.0,41,-99.99,,,-99.99,,2013-03-04 20:22:00,
2013-03-04 15:33:00,40.0,18.0,29.83,East,90,7.0,28.0,41,-99.99,,,-99.99,,2013-03-04 20:33:00,
2013-03-04 15:42:00,40.0,18.0,29.83,East,90,7.0,28.0,41,-99.99,,,-99.99,,2013-03-04 20:42:00,
2013-03-04 15:53:00,40.0,18.0,29.83,East,90,7.0,28.0,41,-99.99,,,-99.99,,2013-03-04 20:53:00,
2013-03-04 16:00:00,41.0,18.0,29.83,SSE,162,7.0,29.0,40,-99.99,,,-99.99,,2013-03-04 21:00:00,
2013-03-04 16:22:00,41.0,18.0,29.83,SSE,162,7.0,29.0,40,-99.99,,,-99.99,,2013-03-04 21:22:00,
2013-03-04 16:32:00,41.0,18.0,29.83,SSE,162,7.0,29.0,40,-99.99,,,-99.99,,2013-03-04 21:32:00,
2013-03-04 16:43:00,41.0,18.0,29.83,SSE,162,7.0,29.0,40,-99.99,,,-99.99,,2013-03-04 21:43:00,
2013-03-04 16:53:00,41.0,18.0,29.83,SSE,162,7.0,29.0,40,-99.99,,,-99.99,,2013-03-04 21:53:00,
2013-03-04 17:00:00,40.0,19.0,29.83,North,0,6.0,26.0,42,-99.99,,,-99.99,,2013-03-04 22:00:00,
2013-03-04 17:22:00,40.0,19.0,29.83,North,0,6.0,26.0,42,-99.99,,,-99.99,,2013-03-04 22:22:00,
2013-03-04 17:32:00,40.0,19.0,29.83,North,0,6.0,26.0,42,-99.99,,,-99.99,,2013-03-04 22:32:00,
2013-03-04 17:43:00,40.0,19.0,29.83,North,0,6.0,26.0,42,-99.99,,,-99.99,,2013-03-04 22:43:00,
2013-03-04 17:52:00,40.0,19.0,29.83,North,0,6.0,26.0,42,-99.99,,,-99.99,,2013-03-04 22:52:00,
2013-03-04 18:00:00,37.0,19.0,29.85,SSW,199,5.0,24.0,47,-99.99,,,-99.99,,2013-03-04 23:00:00,
2013-03-04 18:22:00,37.0,19.0,29.85,SSW,199,5.0,24.0,47,-99.99,,,-99.99,,2013-03-04 23:22:00,
2013-03-04 18:32:00,37.0,19.0,29.85,SSW,199,5.0,24.0,47,-99.99,,,-99.99,,2013-03-04 23:32:00,
2013-03-04 18:42:00,37.0,19.0,29.85,SSW,199,5.0,24.0,47,-99.99,,,-99.99,,2013-03-04 23:42:00,
2013-03-04 18:52:00,37.0,19.0,29.85,SSW,199,5.0,24.0,47,-99.99,,,-99.99,,2013-03-04 23:52:00,
2013-03-04 19:00:00,36.0,19.0,29.88,SE,135,3.0,15.0,51,-99.99,,,-99.99,,2013-03-05 00:00:00,
2013-03-04 19:32:00,36.0,19.0,29.88,SE,135,3.0,15.0,51,-99.99,,,-99.99,,2013-03-05 00:32:00,
2013-03-04 19:42:00,36.0,19.0,29.88,SE,135,3.0,15.0,51,-99.99,,,-99.99,,2013-03-05 00:42:00,
2013-03-04 19:52:00,36.0,19.0,29.88,SE,135,3.0,15.0,51,-99.99,,,-99.99,,2013-03-05 00:52:00,
2013-03-04 20:00:00,35.0,18.0,29.91,North,11,0.0,16.0,51,-99.99,,,-99.99,,2013-03-05 01:00:00,
2013-03-04 20:22:00,35.0,18.0,29.91,North,11,0.0,16.0,51,-99.99,,,-99.99,,2013-03-05 01:22:00,
2013-03-04 20:33:00,35.0,18.0,29.91,North,11,0.0,16.0,51,-99.99,,,-99.99,,2013-03-05 01:33:00,
2013-03-04 20:42:00,35.0,18.0,29.91,North,11,0.0,16.0,51,-99.99,,,-99.99,,2013-03-05 01:42:00,
2013-03-04 20:52:00,35.0,18.0,29.91,North,11,0.0,16.0,51,-99.99,,,-99.99,,2013-03-05 01:52:00,
2013-03-04 21:00:00,34.0,18.0,29.91,West,274,5.0,10.0,52,-99.99,,,-99.99,,2013-03-05 02:00:00,
2013-03-04 21:22:00,34.0,18.0,29.91,West,274,5.0,10.0,52,-99.99,,,-99.99,,2013-03-05 02:22:00,
2013-03-04 21:32:00,34.0,18.0,29.91,West,274,5.0,10.0,52,-99.99,,,-99.99,,2013-03-05 02:32:00,
2013-03-04 21:42:00,34.0,18.0,29.91,West,274,5.0,10.0,52,-99.99,,,-99.99,,2013-03-05 02:42:00,
2013-03-04 21:53:00,34.0,18.0,29.91,West,274,5.0,10.0,52,-99.99,,,-99.99,,2013-03-05 02:53:00,
2013-03-04 22:00:00,33.0,18.0,29.94,WSW,246,3.0,16.0,54,-99.99,,,-99.99,,2013-03-05 03:00:00,
2013-03-04 22:22:00,33.0,18.0,29.94,WSW,246,3.0,16.0,54,-99.99,,,-99.99,,2013-03-05 03:22:00,
2013-03-04 22:32:00,33.0,18.0,29.94,WSW,246,3.0,16.0,54,-99.99,,,-99.99,,2013-03-05 03:32:00,
2013-03-04 22:42:00,33.0,18.0,29.94,WSW,246,3.0,16.0,54,-99.99,,,-99.99,,2013-03-05 03:42:00,
2013-03-04 22:52:00,33.0,18.0,29.94,WSW,246,3.0,16.0,54,-99.99,,,-99.99,,2013-03-05 03:52:00,
2013-03-04 23:00:00,32.0,19.0,29.94,North,8,3.0,9.0,57,-99.99,,,-99.99,,2013-03-05 04:00:00,
2013-03-04 23:22:00,32.0,19.0,29.94,North,8,3.0,9.0,57,-99.99,,,-99.99,,2013-03-05 04:22:00,
2013-03-04 23:32:00,32.0,19.0,29.94,North,8,3.0,9.0,57,-99.99,,,-99.99,,2013-03-05 04:32:00,
2013-03-04 23:42:00,32.0,19.0,29.94,North,8,3.0,9.0,57,-99.99,,,-99.99,,2013-03-05 04:42:00,
2013-03-04 23:52:00,32.0,19.0,29.94,North,8,3.0,9.0,57,-99.99,,,-99.99,,2013-03-05 04:52:00,